Погода в Ватажном

Россия / Астраханская область     46°33′16″N   48°23′16″E
темп.,
°C
ветер,
м/с
пор.,
м/с
влажн.,
%
обл.,
%
осадки,
мм/ч
давл.,
гПа
погр.,
м
15 апреля, чт
чт1501:00+16ссв3527100 0.0 101367
04:00+14св365294 0.3 1012123
07:00+14всв512522 0.0 1011370
10:00+16в78503 0.0 1010749
13:00+21вюв663488 0.0 10091348
16:00+21всв443624 0.0 10091580
19:00+18ссз464428 0.2 1010424
22:00+15юз34475 0.2 101158
16 апреля, пт
пт1601:00+15з713550 0.0 1011360
04:00+13з612661 0.0 1012322
07:00+13з612705 0.0 1014377
10:00+19зсз79420 0.0 1015819
13:00+23зсз79295 0.0 10152268
16:00+24зсз78265 0.0 10152946
19:00+21сз58337 0.0 1015250
22:00+17зсз35440 0.0 101661
17 апреля, сб
сб1701:00+15зсз34525 0.0 101756
04:00+14зсз3357100 0.0 101742
07:00+14зсз235696 0.0 101854
10:00+20зсз333880 0.0 1019626
13:00+23з4528100 0.0 10182468
16:00+20сз8744100 0.0 10191035
19:00+16сз5756100 0.0 1019644
22:00+15сз5760100 0.0 1020653
18 апреля, вс
вс1801:00+13сз3763100 0.0 1020415
04:00+11ссз33645 0.0 102039
07:00+11ссз12624 0.0 102175
10:00+16зсз1337100 0.0 10201405
13:00+19з3431100 0.0 10192393
16:00+20зюз4428100 0.0 10172523
19:00+18з5829100 0.0 1017380
22:00+14с6950100 0.0 1018450
19 апреля, пн
пн1901:00+11сз35603 0.0 101995
04:00+10с49692 0.0 1020276
07:00+9ссз510830 0.0 1021491
10:00+15ссв78455 0.0 10221273
13:00+17ссв88290 0.0 10231587
16:00+17ссв77240 0.0 10231627
19:00+16св573347 0.0 1024460
22:00+11в81250100 0.0 1026808